Location: Unspecified
(38.6830°S, 0.0000°E)
Time: 13:48:07
(UTC+00:00)

Envisat - Pass Details

Date: 27 May 2019
Orbit: 764 x 766 km, 98.1° (Epoch: 24 June)

Event Time Altitude Azimuth Distance (km) Brightness Sun altitude
Exits shadow 19:15:01 27° 3° (N) 1,459 4.4 -28.0°
Drops below altitude 10° 19:17:16 10° 356° (N) 2,306 5.6 -28.5°
Sets 19:19:35 0° 353° (N) 3,224 6.4 -28.9°
